N1LTP Weather Reports


Display with metric or nautical units.
time (UTC)temp
F
wind
direction
speed
MPH
gust
MPH
rain 1hr
in
rain 24hr
in
rain mn
in
humidity
%
barometer
mb
20260509053107 38 340 0.0 0.0 0.00 0.47 0.00 87 1013.6
20260509051540 39 340 0.0 0.0 0.00 0.47 0.00 86 1013.6
20260509050038 39 340 0.0 0.0 0.00 0.47 0.00 84 1013.5
20260509044535 40 340 0.0 0.0 0.00 0.47 0.00 83 1013.5
20260509043039 40 340 0.0 0.0 0.00 0.47 0.00 83 1013.5
20260509041540 41 340 0.0 0.0 0.00 0.47 0.00 81 1013.4
20260509040029 41 340 0.0 2.0 0.00 0.47 0.00 80 1013.2
20260509034526 42 340 0.0 0.0 0.00 0.47 0.47 80 1013.2
20260509033026 42 340 0.0 0.0 0.00 0.47 0.47 79 1013.0
20260509031526 43 340 0.0 0.0 0.00 0.47 0.47 79 1013.0
20260509030024 44 340 0.0 0.0 0.00 0.47 0.47 78 1013.1
20260509024523 45 340 0.0 0.0 0.00 0.47 0.47 76 1013.0
20260509023022 46 340 0.0 0.0 0.00 0.47 0.47 73 1012.8
20260509021521 47 340 0.0 0.0 0.00 0.47 0.47 72 1012.7
20260509020023 48 340 0.0 0.0 0.00 0.47 0.47 67 1012.6
20260509014517 49 340 0.0 0.0 0.00 0.47 0.47 64 1012.4
20260509013014 50 340 0.0 0.0 0.00 0.47 0.47 62 1012.1
20260509011513 51 340 0.0 0.0 0.00 0.47 0.47 60 1011.8
20260509010027 52 340 0.0 3.0 0.00 0.47 0.47 58 1011.4
20260509004517 52 335 1.0 4.0 0.00 0.47 0.47 57 1011.2
20260509003005 52 326 0.0 2.0 0.01 0.47 0.47 57 1010.9
20260509001504 53 326 0.0 2.0 0.01 0.47 0.47 57 1010.6
20260508234558 54 321 1.0 4.0 0.01 0.47 0.47 53 1009.9
20260508233111 55 304 0.0 8.0 0.00 0.46 0.46 51 1009.7
20260508231559 55 304 1.0 9.0 0.00 0.46 0.46 50 1009.7
20260508230105 56 330 4.0 13.0 0.00 0.46 0.46 47 1009.6
20260508224555 56 325 5.0 12.0 0.00 0.46 0.46 48 1009.5
20260508223056 57 308 2.0 14.0 0.00 0.46 0.46 48 1009.4
20260508221555 57 300 1.0 13.0 0.00 0.46 0.46 49 1009.3
20260508220057 57 259 2.0 14.0 0.00 0.46 0.46 48 1009.2
20260508214602 57 297 3.0 11.0 0.00 0.46 0.46 50 1009.2
20260508213054 57 300 2.0 11.0 0.00 0.46 0.46 51 1009.2
20260508211554 57 318 5.0 16.0 0.01 0.46 0.46 50 1009.1
20260508210053 57 355 3.0 12.0 0.01 0.46 0.46 51 1009.1
20260508204551 57 329 3.0 14.0 0.01 0.46 0.46 49 1009.0
20260508203052 57 326 2.0 13.0 0.02 0.46 0.46 49 1009.0
20260508201551 58 323 8.0 16.0 0.03 0.45 0.45 47 1008.7
20260508200056 58 328 8.0 16.0 0.06 0.45 0.45 46 1008.4
20260508194550 59 294 4.0 16.0 0.07 0.45 0.45 44 1008.3
20260508193053 59 300 1.0 12.0 0.08 0.44 0.44 41 1008.0
20260508191555 59 342 7.0 16.0 0.17 0.42 0.42 39 1007.9
20260508190051 59 315 3.0 11.0 0.14 0.39 0.39 39 1007.9
20260508184547 60 285 6.0 15.0 0.13 0.38 0.38 39 1007.8
20260508183046 59 360 4.0 11.0 0.11 0.36 0.36 42 1007.9
20260508181547 61 288 4.0 13.0 0.00 0.25 0.25 39 1008.0
20260508180046 61 329 5.0 10.0 0.01 0.25 0.25 39 1008.0
20260508174544 61 286 5.0 12.0 0.01 0.25 0.25 39 1008.0
20260508173045 60 340 3.0 16.0 0.01 0.25 0.25 41 1008.0
20260508171551 62 319 5.0 16.0 0.01 0.25 0.25 39 1008.1
20260508170046 61 291 3.0 9.0 0.00 0.24 0.24 41 1008.0
20260508164539 60 291 1.0 13.0 0.00 0.24 0.24 41 1008.2
20260508163037 60 351 2.0 12.0 0.01 0.24 0.24 42 1008.3
20260508161537 60 304 0.0 12.0 0.01 0.24 0.24 41 1008.4
20260508160035 60 167 2.0 11.0 0.01 0.24 0.24 42 1008.6
20260508154532 59 238 2.0 8.0 0.03 0.24 0.24 41 1008.9
20260508153032 59 326 3.0 12.0 0.02 0.23 0.23 43 1009.0
20260508151531 58 307 1.0 8.0 0.14 0.23 0.23 41 1009.1
20260508150025 58 26 4.0 9.0 0.20 0.23 0.23 41 1009.3
20260508144522 58 300 3.0 9.0 0.18 0.21 0.21 43 1009.2
20260508143018 58 232 3.0 8.0 0.18 0.21 0.21 43 1009.4
20260508141515 56 317 4.0 14.0 0.09 0.09 0.09 42 1009.3
20260508140010 56 332 4.0 10.0 0.03 0.03 0.03 44 1009.4
20260508134506 55 207 2.0 8.0 0.03 0.03 0.03 46 1009.6
20260508133002 54 325 4.0 10.0 0.03 0.03 0.03 47 1009.8
20260508131601 53 346 3.0 11.0 0.00 0.00 0.00 52 1009.8
20260508130109 51 316 1.0 5.0 0.00 0.00 0.00 55 1009.8
20260508124552 51 266 0.0 5.0 0.00 0.84 0.00 55 1009.8
20260508123049 50 285 1.0 6.0 0.00 0.84 0.00 56 1010.0
20260508121558 50 298 1.0 6.0 0.00 0.84 0.00 56 1009.9
20260508120047 49 313 2.0 5.0 0.00 0.84 0.00 59 1009.8
20260508114545 49 338 3.0 9.0 0.00 0.89 0.00 57 1009.9
20260508113045 48 306 3.0 9.0 0.00 0.89 0.00 60 1009.9
20260508111542 45 313 1.0 4.0 0.00 0.89 0.00 68 1009.7
20260508110041 43 330 1.0 3.0 0.00 0.89 0.00 73 1009.7
20260508104603 40 317 0.0 0.0 0.00 0.91 0.00 80 1009.6
20260508103043 40 317 0.0 0.0 0.00 0.91 0.00 80 1009.4
20260508101534 39 317 0.0 0.0 0.00 0.91 0.00 81 1009.2
20260508100033 39 317 0.0 0.0 0.00 0.91 0.00 84 1009.2
20260508094529 39 317 0.0 0.0 0.00 0.94 0.00 84 1009.1
20260508093027 39 317 0.0 0.0 0.00 0.94 0.00 83 1008.9
20260508091525 39 317 0.0 0.0 0.00 0.94 0.00 81 1008.7
20260508090024 39 317 0.0 0.0 0.00 0.94 0.00 80 1008.8
20260508084522 39 317 0.0 1.0 0.00 0.95 0.00 81 1008.8
20260508083021 39 317 0.0 1.0 0.00 0.95 0.00 80 1008.7
20260508081518 39 317 0.0 0.0 0.00 0.95 0.00 79 1008.3
20260508080015 40 317 0.0 0.0 0.00 0.95 0.00 77 1008.2
20260508074511 41 317 0.0 0.0 0.00 0.97 0.00 76 1007.8
20260508073008 41 317 0.0 0.0 0.00 0.97 0.00 73 1007.7
20260508071508 42 317 0.0 0.0 0.00 0.97 0.00 71 1007.5
20260508070006 43 317 0.0 0.0 0.00 0.97 0.00 70 1007.2
20260508064609 44 317 0.0 0.0 0.00 0.97 0.00 64 1007.0
20260508063056 45 317 0.0 0.0 0.00 0.97 0.00 63 1007.2
20260508061559 46 317 0.0 2.0 0.00 0.97 0.00 59 1007.2
20260508060049 46 317 0.0 4.0 0.00 0.97 0.00 59 1007.1
20260508054547 47 312 2.0 4.0 0.00 0.97 0.00 58 1007.2